TimeCST,TemperatureF,Dew PointF,Humidity,Sea Level PressureIn,VisibilityMPH,Wind Direction,Wind SpeedMPH,Gust SpeedMPH,PrecipitationIn,Events,Conditions,WindDirDegrees,DateUTC
12:53 AM,18.0,16.0,92,30.04,3.0,WNW,4.6,-,0.00,Snow,Light Snow,300,2012-12-28 06:53:00
1:36 AM,17.6,15.8,93,29.95,3.0,NW,5.8,-,0.00,Snow,Light Snow,310,2012-12-28 07:36:00
1:53 AM,18.0,16.0,92,30.04,3.0,WNW,4.6,-,0.00,Snow,Light Snow,300,2012-12-28 07:53:00
2:04 AM,17.6,15.8,93,29.95,3.0,WNW,4.6,-,0.00,Snow,Light Snow,300,2012-12-28 08:04:00
2:53 AM,18.0,14.0,84,30.05,5.0,NW,10.4,-,0.00,,Overcast,310,2012-12-28 08:53:00
3:53 AM,16.0,12.9,88,30.05,7.0,NW,12.7,-,N/A,,Overcast,310,2012-12-28 09:53:00
4:53 AM,15.1,10.9,84,30.05,8.0,WNW,11.5,-,N/A,,Overcast,300,2012-12-28 10:53:00
5:53 AM,12.0,9.0,88,30.06,8.0,NW,13.8,-,N/A,,Overcast,310,2012-12-28 11:53:00
6:53 AM,9.0,6.1,88,30.07,7.0,NW,12.7,-,N/A,,Overcast,310,2012-12-28 12:53:00
7:53 AM,10.9,7.0,84,30.07,7.0,NW,15.0,-,N/A,,Overcast,320,2012-12-28 13:53:00
8:53 AM,12.9,9.0,84,30.09,6.0,NW,11.5,-,0.00,,Overcast,320,2012-12-28 14:53:00
9:53 AM,10.0,5.0,80,30.12,8.0,NW,11.5,-,N/A,,Clear,310,2012-12-28 15:53:00
10:53 AM,10.9,7.0,84,30.12,8.0,NNW,16.1,-,N/A,,Clear,330,2012-12-28 16:53:00
11:53 AM,14.0,8.1,77,30.11,9.0,NNW,16.1,-,N/A,,Clear,330,2012-12-28 17:53:00
12:53 PM,15.1,10.0,80,30.09,9.0,NNW,16.1,-,N/A,,Clear,340,2012-12-28 18:53:00
1:53 PM,16.0,10.9,81,30.09,8.0,NNW,13.8,-,N/A,,Clear,330,2012-12-28 19:53:00
2:25 PM,17.6,10.4,73,30.00,7.0,NNW,12.7,-,N/A,,Mostly Cloudy,340,2012-12-28 20:25:00
2:53 PM,17.1,10.9,77,30.09,5.0,NNW,12.7,-,N/A,,Haze,340,2012-12-28 20:53:00
3:53 PM,17.1,10.9,77,30.11,5.0,NNW,12.7,-,0.00,Snow,Light Snow,340,2012-12-28 21:53:00
4:53 PM,16.0,10.0,77,30.13,7.0,NNW,11.5,-,0.00,,Overcast,340,2012-12-28 22:53:00
5:53 PM,16.0,10.9,81,30.15,8.0,NW,6.9,-,N/A,,Overcast,310,2012-12-28 23:53:00
6:24 PM,12.2,6.8,79,30.05,10.0,NNW,9.2,-,N/A,,Scattered Clouds,330,2012-12-29 00:24:00
6:53 PM,7.0,3.9,87,30.19,10.0,NW,9.2,-,N/A,,Partly Cloudy,310,2012-12-29 00:53:00
7:53 PM,5.0,1.9,87,30.20,9.0,NW,9.2,-,N/A,,Clear,310,2012-12-29 01:53:00
8:53 PM,3.9,1.0,88,30.19,7.0,WNW,6.9,-,N/A,,Clear,300,2012-12-29 02:53:00
9:53 PM,3.0,-0.0,87,30.20,9.0,NW,9.2,-,N/A,,Clear,310,2012-12-29 03:53:00
10:53 PM,3.9,1.0,88,30.21,10.0,NW,4.6,-,N/A,,Clear,310,2012-12-29 04:53:00
11:53 PM,1.9,-0.9,88,30.21,9.0,WNW,6.9,-,N/A,,Clear,290,2012-12-29 05:53:00